This is the latest recevied weather packets stored in our database for station/object N2XP-2. If no packets are shown the sender has not sent any weather packets the latest 10 day(s).
| Time | Temp. | Humidity | Pressure | Rain* | Wind** | Luminosity | Snow |
|---|---|---|---|---|---|---|---|
| 1778062808 | 16.67° C | 89% | 1010.7 hPa | 0 mm | 1.34 m/s, 188° | - | - |
| 1778062509 | 16.67° C | 89% | 1010.6 hPa | 0 mm | 1.79 m/s, 235° | - | - |
| 1778062206 | 16.67° C | 89% | 1010.6 hPa | 0 mm | 1.34 m/s, 231° | - | - |
| 1778061907 | 16.67° C | 89% | 1010.6 hPa | 0 mm | 1.79 m/s, 257° | - | - |
| 1778061608 | 16.67° C | 89% | 1010.5 hPa | 0 mm | 1.79 m/s, 240° | - | - |
| 1778061305 | 16.67° C | 89% | 1010.6 hPa | 0 mm | 1.34 m/s, 201° | - | - |
| 1778061253 | 16.67° C | 89% | 1010.6 hPa | 0 mm | 1.34 m/s, 203° | - | - |
| 1778061003 | 16.67° C | 89% | 1010.5 hPa | 0 mm | 1.34 m/s, 245° | - | - |
| 1778060704 | 16.67° C | 89% | 1010.5 hPa | 0 mm | 1.79 m/s, 221° | - | - |
| 1778060400 | 16.67° C | 89% | 1010.6 hPa | 0 mm | 1.34 m/s, 217° | - | - |
| 1778060101 | 16.67° C | 89% | 1010.5 hPa | 0 mm | 0.89 m/s, 252° | - | - |
| 1778059802 | 16.67° C | 89% | 1010.6 hPa | 0 mm | 1.34 m/s, 205° | - | - |
| 1778059499 | 16.67° C | 89% | 1010.6 hPa | 0 mm | 1.34 m/s, 203° | - | - |
| 1778059344 | 16.67° C | 89% | 1010.8 hPa | 0 mm | 1.34 m/s, 214° | - | - |
| 1778059334 | 16.67° C | 88% | 1010.9 hPa | 0 mm | 1.79 m/s, 208° | - | - |
| 1778059200 | 16.67° C | 89% | 1010.6 hPa | 0 mm | 0.89 m/s, 233° | - | - |
| 1778058901 | 16.67° C | 89% | 1010.7 hPa | 0 mm | 0.89 m/s, 208° | - | - |
| 1778058598 | 16.67° C | 89% | 1010.8 hPa | 0 mm | 1.34 m/s, 253° | - | - |
| 1778058299 | 16.67° C | 89% | 1010.8 hPa | 0 mm | 1.79 m/s, 204° | - | - |
| 1778058000 | 16.67° C | 89% | 1010.8 hPa | 0 mm | 1.34 m/s, 214° | - | - |
| 1778057697 | 16.67° C | 88% | 1010.9 hPa | 0 mm | 1.79 m/s, 208° | - | - |
| 1778057419 | 16.67° C | 87% | 1010.9 hPa | 0 mm | 1.34 m/s, 194° | - | - |
| 1778057414 | 16.67° C | 87% | 1010.9 hPa | 0 mm | 1.34 m/s, 309° | - | - |
| 1778057398 | 16.67° C | 88% | 1010.9 hPa | 0 mm | 1.34 m/s, 301° | - | - |
| 1778057099 | 16.67° C | 88% | 1010.8 hPa | 0 mm | 1.34 m/s, 255° | - | - |
* Rain latest hour (hover to see other rain measurements)
** Current wind speed in m/s (hover to see current wind gust speed)